• In Italy
  • List of Countries
  • For 7 days
  • Water Temperature
  • Satellite Maps
  • Weather Map
  • Weather Widgets
  • user-avatar
    Login

    Hourly Weather Abovyan

    Today, 19 February, Monday

    Time Temperature Precipitation Wind Pressure Humidity
    00:00 +3°C° 0.5 mm 3 mps 666 mmHg 82%
    01:00 +3°C° 0.4 mm 3 mps 666 mmHg 82%
    02:00 +3°C° 0.4 mm 3 mps 666 mmHg 83%
    03:00 +2°C° 0 mm 3 mps 666 mmHg 82%
    04:00 +2°C° 0.4 mm 3 mps 666 mmHg 82%
    05:00 +3°C° 0.4 mm 2 mps 667 mmHg 82%
    06:00 +3°C° 0.4 mm 2 mps 667 mmHg 82%
    07:00 +3°C° 0.2 mm 2 mps 667 mmHg 80%
    08:00 +4°C° 0.2 mm 2 mps 667 mmHg 78%
    09:00 +4°C° 0.2 mm 2 mps 668 mmHg 76%
    10:00 +5°C° 0.2 mm 2 mps 668 mmHg 74%
    11:00 +5°C° 0.2 mm 2 mps 668 mmHg 72%
    12:00 +7°C° 0.2 mm 1 mps 667 mmHg 70%
    13:00 +7°C° 0.1 mm 1 mps 667 mmHg 69%
    14:00 +7°C° 0.1 mm 1 mps 667 mmHg 68%
    15:00 +8°C° 0.1 mm 1 mps 667 mmHg 67%
    16:00 +7°C° 0 mm 1 mps 667 mmHg 68%
    17:00 +6°C° 0 mm 1 mps 668 mmHg 70%
    18:00 +5°C° 0 mm 1 mps 668 mmHg 72%
    19:00 +4°C° 0 mm 1 mps 668 mmHg 72%
    20:00 +4°C° 0 mm 1 mps 668 mmHg 72%
    21:00 +3°C° 0 mm 1 mps 669 mmHg 72%
    22:00 +3°C° 0 mm 1 mps 669 mmHg 72%
    23:00 +3°C° 0 mm 1 mps 669 mmHg 72%

    Tomorrow, 20 February, Tuesday

    Time Temperature Precipitation Wind Pressure Humidity
    00:00 +2°C° 0 mm 1 mps 669 mmHg 71%
    01:00 +2°C° 0 mm 1 mps 669 mmHg 71%
    02:00 +2°C° 0 mm 1 mps 669 mmHg 71%
    03:00 +2°C° 0 mm 1 mps 670 mmHg 71%
    04:00 +2°C° 0 mm 1 mps 670 mmHg 71%
    05:00 +2°C° 0 mm 1 mps 670 mmHg 71%
    06:00 +2°C° 0 mm 1 mps 670 mmHg 72%
    07:00 +2°C° 0 mm 2 mps 670 mmHg 70%
    08:00 +3°C° 0 mm 2 mps 670 mmHg 69%
    09:00 +4°C° 0 mm 2 mps 670 mmHg 68%
    10:00 +5°C° 0 mm 2 mps 670 mmHg 65%
    11:00 +6°C° 0 mm 2 mps 670 mmHg 62%
    12:00 +7°C° 0 mm 3 mps 669 mmHg 59%
    13:00 +7°C° 0 mm 3 mps 669 mmHg 58%
    14:00 +8°C° 0 mm 2 mps 669 mmHg 56%
    15:00 +8°C° 0 mm 2 mps 668 mmHg 55%
    16:00 +7°C° 0 mm 2 mps 668 mmHg 57%
    17:00 +6°C° 0 mm 2 mps 668 mmHg 58%
    18:00 +5°C° 0 mm 2 mps 668 mmHg 60%
    19:00 +4°C° 0 mm 2 mps 669 mmHg 60%
    20:00 +4°C° 0 mm 2 mps 669 mmHg 60%
    21:00 +4°C° 0 mm 1 mps 669 mmHg 61%
    22:00 +4°C° 0 mm 1 mps 669 mmHg 62%
    23:00 +4°C° 0 mm 1 mps 669 mmHg 64%

    Day after tomorrow, 21 February, Wednesday

    Time Temperature Precipitation Wind Pressure Humidity
    00:00 +4°C° 0 mm 1 mps 669 mmHg 65%
    01:00 +4°C° 0.1 mm 1 mps 669 mmHg 66%
    02:00 +3°C° 0.1 mm 1 mps 669 mmHg 68%
    03:00 +3°C° 0.1 mm 1 mps 669 mmHg 69%
    04:00 +3°C° 0.1 mm 1 mps 669 mmHg 70%
    05:00 +3°C° 0.1 mm 1 mps 669 mmHg 70%
    06:00 +3°C° 0.1 mm 1 mps 669 mmHg 71%
    07:00 +4°C° 0.1 mm 1 mps 669 mmHg 69%
    08:00 +5°C° 0.1 mm 1 mps 669 mmHg 68%
    09:00 +5°C° 0.1 mm 2 mps 670 mmHg 66%
    10:00 +6°C° 0.1 mm 2 mps 669 mmHg 65%
    11:00 +6°C° 0.1 mm 2 mps 669 mmHg 64%
    12:00 +7°C° 0.1 mm 2 mps 669 mmHg 63%
    13:00 +8°C° 0.1 mm 2 mps 668 mmHg 62%
    14:00 +8°C° 0.1 mm 2 mps 668 mmHg 61%
    15:00 +8°C° 0.1 mm 2 mps 668 mmHg 60%
    16:00 +7°C° 0.1 mm 2 mps 668 mmHg 62%
    17:00 +6°C° 0.1 mm 2 mps 668 mmHg 63%
    18:00 +5°C° 0.1 mm 2 mps 668 mmHg 65%
    19:00 +5°C° 0.1 mm 2 mps 668 mmHg 65%
    20:00 +5°C° 0.1 mm 1 mps 669 mmHg 66%
    21:00 +5°C° 0.1 mm 1 mps 669 mmHg 66%
    22:00 +5°C° 0 mm 1 mps 669 mmHg 66%
    23:00 +4°C° 0 mm 1 mps 669 mmHg 67%

    22 February, Thursday

    Time Temperature Precipitation Wind Pressure Humidity
    00:00 +4°C° 0 mm 1 mps 669 mmHg 67%
    01:00 +4°C° 0 mm 1 mps 669 mmHg 68%
    02:00 +4°C° 0 mm 1 mps 669 mmHg 68%
    03:00 +4°C° 0 mm 1 mps 669 mmHg 69%
    04:00 +3°C° 0.1 mm 1 mps 669 mmHg 70%
    05:00 +3°C° 0.1 mm 1 mps 669 mmHg 71%
    06:00 +3°C° 0.1 mm 1 mps 669 mmHg 72%
    07:00 +4°C° 0.1 mm 1 mps 669 mmHg 71%
    08:00 +5°C° 0.1 mm 1 mps 669 mmHg 70%
    09:00 +6°C° 0.1 mm 1 mps 669 mmHg 69%
    10:00 +6°C° 0.1 mm 2 mps 669 mmHg 67%
    11:00 +6°C° 0.1 mm 2 mps 668 mmHg 66%
    12:00 +7°C° 0.1 mm 2 mps 668 mmHg 65%
    13:00 +8°C° 0 mm 2 mps 668 mmHg 64%
    14:00 +8°C° 0 mm 2 mps 667 mmHg 63%
    15:00 +9°C° 0 mm 1 mps 667 mmHg 61%
    16:00 +8°C° 0 mm 1 mps 667 mmHg 63%
    17:00 +7°C° 0 mm 1 mps 667 mmHg 65%
    18:00 +6°C° 0 mm 1 mps 667 mmHg 66%
    19:00 +6°C° 0 mm 1 mps 667 mmHg 66%
    20:00 +6°C° 0 mm 1 mps 667 mmHg 67%
    21:00 +5°C° 0 mm 1 mps 667 mmHg 67%
    22:00 +5°C° 0 mm 1 mps 667 mmHg 67%
    23:00 +5°C° 0 mm 1 mps 667 mmHg 67%

    23 February, Friday

    Time Temperature Precipitation Wind Pressure Humidity
    00:00 +5°C° 0 mm 1 mps 668 mmHg 67%
    01:00 +4°C° 0 mm 1 mps 667 mmHg 67%
    02:00 +4°C° 0 mm 1 mps 667 mmHg 67%
    03:00 +4°C° 0 mm 1 mps 667 mmHg 67%
    04:00 +4°C° 0 mm 1 mps 667 mmHg 68%
    05:00 +3°C° 0 mm 1 mps 667 mmHg 68%
    06:00 +3°C° 0 mm 1 mps 667 mmHg 68%
    07:00 +4°C° 0 mm 1 mps 667 mmHg 66%
    08:00 +5°C° 0 mm 1 mps 668 mmHg 64%
    09:00 +6°C° 0 mm 1 mps 668 mmHg 62%
    10:00 +7°C° 0 mm 1 mps 667 mmHg 62%
    11:00 +8°C° 0 mm 1 mps 667 mmHg 61%
    12:00 +9°C° 0 mm 1 mps 667 mmHg 60%
    13:00 +9°C° 0 mm 1 mps 666 mmHg 59%
    14:00 +9°C° 0 mm 1 mps 666 mmHg 59%
    15:00 +9°C° 0 mm 1 mps 666 mmHg 58%
    16:00 +9°C° 0 mm 1 mps 666 mmHg 61%
    17:00 +8°C° 0 mm 1 mps 666 mmHg 63%
    18:00 +7°C° 0 mm 1 mps 666 mmHg 66%
    19:00 +6°C° 0 mm 1 mps 666 mmHg 68%
    20:00 +6°C° 0 mm 1 mps 667 mmHg 70%
    21:00 +5°C° 0 mm 1 mps 667 mmHg 72%
    22:00 +5°C° 0 mm 1 mps 667 mmHg 73%
    23:00 +5°C° 0 mm 1 mps 667 mmHg 74%

    24 February, Saturday

    Time Temperature Precipitation Wind Pressure Humidity
    00:00 +4°C° 0 mm 1 mps 667 mmHg 75%
    01:00 +4°C° 0 mm 1 mps 667 mmHg 75%
    02:00 +4°C° 0 mm 1 mps 667 mmHg 76%
    03:00 +3°C° 0 mm 1 mps 667 mmHg 76%
    04:00 +3°C° 0 mm 1 mps 667 mmHg 76%
    05:00 +3°C° 0 mm 1 mps 667 mmHg 76%
    06:00 +2°C° 0 mm 1 mps 667 mmHg 76%
    07:00 +4°C° 0 mm 1 mps 667 mmHg 72%
    08:00 +5°C° 0 mm 1 mps 668 mmHg 69%
    09:00 +6°C° 0 mm 1 mps 668 mmHg 66%
    10:00 +7°C° 0 mm 1 mps 668 mmHg 64%
    11:00 +8°C° 0 mm 1 mps 667 mmHg 63%
    12:00 +9°C° 0 mm 1 mps 667 mmHg 61%
    13:00 +9°C° 0 mm 1 mps 667 mmHg 59%
    14:00 +9°C° 0 mm 1 mps 666 mmHg 57%
    15:00 +10°C° 0 mm 1 mps 666 mmHg 56%
    16:00 +8°C° 0 mm 1 mps 666 mmHg 57%
    17:00 +6°C° 0 mm 0 mps 666 mmHg 59%
    18:00 +5°C° 0 mm 0 mps 666 mmHg 61%
    19:00 +4°C° 0 mm 0 mps 666 mmHg 62%
    20:00 +5°C° 0 mm 1 mps 667 mmHg 62%
    21:00 +5°C° 0 mm 1 mps 667 mmHg 63%
    22:00 +4°C° 0 mm 1 mps 667 mmHg 63%
    23:00 +4°C° 0 mm 1 mps 667 mmHg 64%
    Show more